TimeMDT,TemperatureF,Dew PointF,Humidity,Sea Level PressureIn,VisibilityMPH,Wind Direction,Wind SpeedMPH,Gust SpeedMPH,PrecipitationIn,Events,Conditions,WindDirDegrees,DateUTC
12:56 AM,45.0,30.9,58,29.93,-9999.0,SSW,6.9,-,N/A,,Unknown,210,2012-10-15 06:56:00
1:56 AM,46.0,30.9,56,29.91,-9999.0,SSW,6.9,-,N/A,,Unknown,200,2012-10-15 07:56:00
2:56 AM,51.1,32.0,48,29.87,-9999.0,SSW,13.8,-,N/A,,Unknown,210,2012-10-15 08:56:00
3:56 AM,46.9,32.0,56,29.85,-9999.0,SSW,13.8,-,N/A,,Unknown,200,2012-10-15 09:56:00
4:56 AM,46.0,30.9,56,29.83,-9999.0,South,15.0,-,N/A,,Unknown,180,2012-10-15 10:56:00
5:56 AM,46.0,30.9,56,29.83,-9999.0,South,13.8,-,N/A,,Unknown,180,2012-10-15 11:56:00
6:56 AM,46.0,30.9,56,29.82,-9999.0,South,13.8,-,N/A,,Unknown,180,2012-10-15 12:56:00
7:56 AM,48.0,30.9,52,29.81,-9999.0,South,11.5,-,N/A,,Unknown,190,2012-10-15 13:56:00
8:56 AM,52.0,30.9,45,29.81,-9999.0,SSW,12.7,-,N/A,,Unknown,210,2012-10-15 14:56:00
9:56 AM,64.0,32.0,30,29.78,-9999.0,WSW,12.7,-,N/A,,Unknown,240,2012-10-15 15:56:00
10:56 AM,73.0,28.9,20,29.75,-9999.0,West,11.5,-,N/A,,Unknown,260,2012-10-15 16:56:00
11:56 AM,75.0,30.0,19,29.73,-9999.0,WNW,12.7,-,N/A,,Unknown,300,2012-10-15 17:56:00
12:56 PM,75.9,30.0,19,29.73,-9999.0,WNW,17.3,-,N/A,,Unknown,290,2012-10-15 18:56:00
1:56 PM,77.0,30.0,18,29.70,-9999.0,West,15.0,-,N/A,,Unknown,280,2012-10-15 19:56:00
2:56 PM,75.9,30.9,19,29.68,-9999.0,WNW,13.8,20.7,N/A,,Unknown,290,2012-10-15 20:56:00
3:56 PM,77.0,30.9,19,29.68,-9999.0,WNW,17.3,21.9,N/A,,Unknown,290,2012-10-15 21:56:00
4:56 PM,75.0,30.9,20,29.68,-9999.0,WNW,13.8,-,N/A,,Unknown,300,2012-10-15 22:56:00
5:56 PM,66.9,32.0,27,29.70,-9999.0,WNW,6.9,-,N/A,,Unknown,300,2012-10-15 23:56:00
6:56 PM,64.9,33.1,31,29.71,-9999.0,NW,9.2,-,N/A,,Unknown,320,2012-10-16 00:56:00
7:56 PM,64.9,37.0,36,29.72,-9999.0,NNW,12.7,-,N/A,,Unknown,330,2012-10-16 01:56:00
8:56 PM,63.0,39.9,43,29.73,-9999.0,NNW,15.0,-,N/A,,Unknown,330,2012-10-16 02:56:00
9:56 PM,61.0,42.1,50,29.70,-9999.0,NW,16.1,-,N/A,,Unknown,310,2012-10-16 03:56:00
10:56 PM,60.1,42.1,51,29.68,-9999.0,NW,13.8,-,N/A,,Unknown,310,2012-10-16 04:56:00
11:56 PM,57.0,45.0,64,29.69,-9999.0,WNW,12.7,-,N/A,,Unknown,300,2012-10-16 05:56:00